Weather Service Report


472 
ASUS45 KBOI 241610
RWRID 
WEATHER ROUNDUP FOR IDAHO
NATIONAL WEATHER SERVICE BOISE ID
1000 AM MDT THU APR 24 2014

NOTE: "FAIR" INDICATES FEW OR NO CLOUDS BELOW 12000 FEET
WITH NO SIGNIFICANT WEATHER AND/OR OBSTRUCTIONS TO VISIBILITY

IDZ012-014-241700-
SOUTHWEST IDAHO

  
CITY           SKY/WX    TMP DP  RH WIND       PRES   REMARKS
BOISE          LGT RAIN  47  41  80 SE16      29.94F                  
CALDWELL       CLOUDY    48  37  66 SE14      29.95S                  
MOUNTAIN HOME  CLOUDY    46  46  99 E13       29.96R                  
$$

IDZ016-017-241700-
SOUTHCENTRAL IDAHO

  
CITY           SKY/WX    TMP DP  RH WIND       PRES   REMARKS
BURLEY         CLOUDY    48  34  58 S15       29.98S                  
JEROME         LGT RAIN  44  39  82 W5        29.99R                  
TWIN FALLS     LGT RAIN  50  35  56 SW7       29.99R                  
$$

IDZ019>023-241700-
SOUTHEAST IDAHO

  
CITY           SKY/WX    TMP DP  RH WIND       PRES   REMARKS
IDAHO FALLS    CLOUDY    49  26  41 S15       29.97F                  
POCATELLO      PTSUNNY   50  24  36 S17G29    29.99R                  
REXBURG        CLOUDY    45  26  47 SW10      29.97F                  
$$

IDZ006-010-011-018-031-032-241700-
CENTRAL IDAHO MOUNTAINS

  
CITY           SKY/WX    TMP DP  RH WIND       PRES   REMARKS
MCCALL         LGT SNOW  33  31  92 SE7       29.88S FOG     WCI  27  
HAILEY         LGT SNOW  36  34  93 E6        29.99R WCI  31          
STANLEY          N/A     33  30  88 SE10G18   29.93R WCI  25          
SALMON         CLOUDY    46  30  53 NW3       29.86R                  
CHALLIS        CLOUDY    44  28  53 SW13      29.89R                  
$$

IDZ002-004-006-007-026-241700-
NORTHERN IDAHO

  
CITY           SKY/WX    TMP DP  RH WIND       PRES   REMARKS
LEWISTON       CLOUDY    48  43  82 N5        29.82R                  
LOWELL           N/A     42  40  92 CALM      29.91R                  
COEUR D'ALENE  CLOUDY    41  37  87 SE10      29.77S                  
MULLAN PASS    SNOW      31  29  92 VRB3      29.74S VSB 1/4          
$$

Return to Home page


Western Regional Climate Center, wrcc@dri.edu